Weather History for Idabel, OK

Change the Weather History Date:

Sunday, January 13, 2013

  Actual Average (KDEQ) Record (KDEQ)
Temperature  
Mean Temperature 34 °F 41 °F  
Max Temperature 42 °F 53 °F 83 °F (1941)
Min Temperature 26 °F 30 °F 7 °F (1963)
Degree Days  
Heating Degree Days 31 24  
Month to date heating degree days 306  
Since 1 July heating degree days 1515  
Cooling Degree Days 0 0  
Month to date cooling degree days 0  
Year to date cooling degree days 0  
Moisture  
Dew Point 28 °F    
Average Humidity 77    
Maximum Humidity 93    
Minimum Humidity 53    
Precipitation  
Precipitation 0.03 in 0.10 in 2.01 in (1995)
Month to date precipitation 1.42  
Year to date precipitation 1.42  
Snow  
Snow 0.00 in - - ()
Month to date snowfall  
Since 1 July snowfall  
Snow Depth -    
Sea Level Pressure  
Sea Level Pressure 30.11 in    
Wind  
Wind Speed 11 mph (NNW)    
Max Wind Speed 17 mph    
Max Gust Speed 26 mph    
Visibility 10 miles    
Events      
T = Trace of Precipitation, MM = Missing Value Source: NWS Daily Summary

Daily Weather History Graph

Daily Weather History Graph

Search for Another Location

Airport:

Trip Planner

Search our weather history database for the weather conditions in past years. The results will help you decide how hot, cold, wet, or windy it might be!

Date:

Astronomy

Jan. 13, 2013 Rise Set
Actual Time 7:24 AM CST 5:31 PM CST
Civil Twilight 6:57 AM CST 5:59 PM CST
Nautical Twilight 6:26 AM CST 6:29 PM CST
Astronomical Twilight 5:56 AM CST 7:00 PM CST
Moon 8:31 AM CST (1/13) 8:02 PM CST (1/13)
Length of Visible Light 11h 01m
Length of Day
10h 07m
Waxing Crescent, 5% of the Moon is Illuminated
Jan 13
Waxing Crescent
Jan 18
First Quarter
Jan 26
Full
Feb 3
Last Quarter
Feb 10
New

Hourly Weather History & Observations

Time (CST) Temp. Windchill Dew Point Humidity Pressure Visibility Wind Dir Wind Speed Gust Speed Precip Events Conditions
12:15 AM 35.6 °F 27.5 °F 33.8 °F 93% 29.87 in 10.0 mi NW 11.5 mph 23.0 mph N/A   Overcast
12:35 AM 35.6 °F 27.1 °F 33.8 °F 93% 29.85 in 10.0 mi NNW 12.7 mph - N/A   Overcast
12:55 AM 35.6 °F 28.0 °F 33.8 °F 93% 29.88 in 10.0 mi NNW 10.4 mph - N/A   Overcast
1:15 AM 37.4 °F 30.3 °F 33.8 °F 87% 29.88 in 10.0 mi NW 10.4 mph - N/A   Overcast
1:35 AM 37.4 °F 28.9 °F 33.8 °F 87% 29.87 in 10.0 mi NNW 13.8 mph - N/A   Overcast
1:55 AM 37.4 °F 28.5 °F 33.8 °F 87% 29.89 in 10.0 mi NNW 15.0 mph 19.6 mph N/A   Overcast
2:15 AM 37.4 °F 29.8 °F 33.8 °F 87% 29.90 in 10.0 mi NNW 11.5 mph 19.6 mph N/A   Overcast
2:35 AM 37.4 °F 29.8 °F 33.8 °F 87% 29.91 in 10.0 mi NNW 11.5 mph - N/A   Overcast
3:15 AM 37.4 °F 29.3 °F 32.0 °F 81% 29.97 in 10.0 mi NW 12.7 mph 16.1 mph N/A   Overcast
3:35 AM 35.6 °F 27.5 °F 32.0 °F 87% 29.98 in 10.0 mi NW 11.5 mph 17.3 mph N/A   Overcast
3:55 AM 35.6 °F 28.0 °F 32.0 °F 87% 29.99 in 10.0 mi NW 10.4 mph - N/A   Overcast
4:15 AM 35.6 °F 26.6 °F 32.0 °F 87% 29.97 in 10.0 mi NW 13.8 mph 18.4 mph N/A   Overcast
4:35 AM 35.6 °F 26.2 °F 32.0 °F 87% 29.98 in 10.0 mi NNW 15.0 mph 21.9 mph N/A   Overcast
4:55 AM 33.8 °F 24.8 °F 32.0 °F 93% 29.99 in 10.0 mi NNW 12.7 mph 19.6 mph N/A   Overcast
5:15 AM 33.8 °F 23.9 °F 30.2 °F 87% 29.97 in 10.0 mi North 15.0 mph 26.5 mph N/A   Overcast
5:35 AM 33.8 °F 25.8 °F 30.2 °F 87% 29.98 in 10.0 mi North 10.4 mph - N/A   Overcast
5:55 AM 33.8 °F 25.8 °F 32.0 °F 93% 29.99 in 10.0 mi NNW 10.4 mph 18.4 mph N/A   Overcast
6:15 AM 33.8 °F 25.3 °F 32.0 °F 93% 29.98 in 10.0 mi NNW 11.5 mph - N/A   Overcast
6:35 AM 33.8 °F 25.3 °F 30.2 °F 87% 30.04 in 10.0 mi WNW 11.5 mph - N/A   Overcast
6:55 AM 32.0 °F 23.6 °F 30.2 °F 93% 30.02 in 5.0 mi NNW 10.4 mph - 0.02 in   Mostly Cloudy
7:15 AM 32.0 °F 24.8 °F 30.2 °F 93% 30.11 in 10.0 mi WNW 8.1 mph - 0.01 in   Mostly Cloudy
7:35 AM 32.0 °F 23.0 °F 30.2 °F 93% 30.07 in 10.0 mi NW 11.5 mph 18.4 mph 0.01 in   Overcast
7:55 AM 32.0 °F 23.0 °F 30.2 °F 93% 30.10 in 10.0 mi NW 11.5 mph 17.3 mph 0.01 in   Overcast
8:15 AM 32.0 °F 23.0 °F 30.2 °F 93% 30.11 in 10.0 mi NW 11.5 mph - N/A   Mostly Cloudy
8:35 AM 32.0 °F 21.2 °F 28.4 °F 87% 30.11 in 10.0 mi NNW 16.1 mph 19.6 mph N/A   Scattered Clouds
8:55 AM 32.0 °F 22.1 °F 28.4 °F 87% 30.12 in 10.0 mi NNW 13.8 mph 20.7 mph N/A   Scattered Clouds
9:15 AM 32.0 °F 21.6 °F 28.4 °F 87% 30.12 in 10.0 mi NNW 15.0 mph 21.9 mph N/A   Scattered Clouds
9:35 AM 32.0 °F 23.0 °F 28.4 °F 87% 30.13 in 10.0 mi NW 11.5 mph 16.1 mph N/A   Scattered Clouds
9:55 AM 32.0 °F 21.6 °F 28.4 °F 87% 30.14 in 10.0 mi NNW 15.0 mph 21.9 mph N/A   Scattered Clouds
10:15 AM 32.0 °F 20.8 °F 28.4 °F 87% 30.15 in 10.0 mi NW 17.3 mph 20.7 mph N/A   Clear
11:15 AM 35.6 °F 25.9 °F 30.2 °F 81% 30.16 in 10.0 mi NW 16.1 mph - N/A   Clear
11:35 AM 37.4 °F 27.8 °F 28.4 °F 70% 30.16 in 10.0 mi NNW 17.3 mph - N/A   Clear
11:55 AM 37.4 °F 29.3 °F 30.2 °F 75% 30.15 in 10.0 mi NNW 12.7 mph - N/A   Clear
12:15 PM 37.4 °F 30.3 °F 30.2 °F 75% 30.15 in 10.0 mi NNW 10.4 mph - N/A   Clear
12:35 PM 39.2 °F 30.8 °F 30.2 °F 70% 30.15 in 10.0 mi NNW 15.0 mph - N/A   Clear
12:55 PM 41.0 °F 34.3 °F 30.2 °F 65% 30.15 in 10.0 mi NNW 11.5 mph 21.9 mph N/A   Clear
1:15 PM 41.0 °F 34.3 °F 30.2 °F 65% 30.14 in 10.0 mi NNW 11.5 mph 19.6 mph N/A   Clear
1:35 PM 42.8 °F 35.8 °F 30.2 °F 61% 30.15 in 10.0 mi NNW 13.8 mph 19.6 mph N/A   Clear
1:55 PM 42.8 °F 36.2 °F 30.2 °F 61% 30.14 in 10.0 mi NNW 12.7 mph - N/A   Clear
2:15 PM 42.8 °F 35.4 °F 30.2 °F 61% 30.15 in 10.0 mi NNW 15.0 mph 21.9 mph N/A   Clear
2:35 PM 42.8 °F 36.2 °F 30.2 °F 61% 30.15 in 10.0 mi North 12.7 mph 18.4 mph N/A   Clear
2:55 PM 42.8 °F 35.1 °F 28.4 °F 57% 30.16 in 10.0 mi North 16.1 mph - N/A   Clear
3:15 PM 42.8 °F 36.6 °F 28.4 °F 57% 30.16 in 10.0 mi North 11.5 mph - N/A   Clear
3:35 PM 42.8 °F 36.2 °F 28.4 °F 57% 30.16 in 10.0 mi North 12.7 mph - N/A   Clear
3:55 PM 42.8 °F 35.1 °F 26.6 °F 53% 30.17 in 10.0 mi North 16.1 mph - N/A   Clear
4:15 PM 42.8 °F 37.0 °F 26.6 °F 53% 30.17 in 10.0 mi North 10.4 mph - N/A   Clear
4:35 PM 41.0 °F 33.9 °F 26.6 °F 57% 30.19 in 10.0 mi NNW 12.7 mph 18.4 mph N/A   Clear
4:55 PM 41.0 °F 34.3 °F 24.8 °F 53% 30.19 in 10.0 mi NNW 11.5 mph - N/A   Clear
5:15 PM 37.4 °F 29.8 °F 24.8 °F 60% 30.19 in 10.0 mi North 11.5 mph - N/A   Clear
5:35 PM 35.6 °F 28.0 °F 23.0 °F 60% 30.20 in 10.0 mi NNW 10.4 mph - N/A   Clear
5:55 PM 33.8 °F 25.8 °F 23.0 °F 65% 30.21 in 10.0 mi NNW 10.4 mph - N/A   Clear
6:15 PM 33.8 °F 24.8 °F 21.2 °F 60% 30.22 in 10.0 mi North 12.7 mph - N/A   Clear
6:35 PM 33.8 °F 27.0 °F 21.2 °F 60% 30.22 in 10.0 mi NNW 8.1 mph 16.1 mph N/A   Clear
6:55 PM 32.0 °F 24.2 °F 21.2 °F 64% 30.22 in 10.0 mi NNW 9.2 mph - N/A   Clear
7:15 PM 32.0 °F 24.8 °F 21.2 °F 64% 30.23 in 10.0 mi North 8.1 mph - N/A   Clear
7:35 PM 32.0 °F 25.6 °F 21.2 °F 64% 30.23 in 10.0 mi NNW 6.9 mph - N/A   Clear
7:55 PM 30.2 °F 23.4 °F 21.2 °F 69% 30.23 in 10.0 mi NNW 6.9 mph - N/A   Clear
8:15 PM 30.2 °F 23.4 °F 21.2 °F 69% 30.24 in 10.0 mi NNW 6.9 mph - N/A   Clear
8:35 PM 30.2 °F 25.4 °F 21.2 °F 69% 30.23 in 10.0 mi NNW 4.6 mph - N/A   Clear
8:55 PM 28.4 °F 23.3 °F 21.2 °F 74% 30.24 in 10.0 mi NNW 4.6 mph - N/A   Clear
9:15 PM 28.4 °F - 21.2 °F 74% 30.25 in 10.0 mi Calm Calm - N/A   Clear
9:35 PM 28.4 °F - 21.2 °F 74% 30.25 in 10.0 mi Calm Calm - N/A   Clear
9:55 PM 26.6 °F 22.6 °F 21.2 °F 80% 30.26 in 10.0 mi NNW 3.5 mph - N/A   Clear
10:35 PM 26.6 °F 22.6 °F 21.2 °F 80% 30.27 in 10.0 mi North 3.5 mph - N/A   Clear
10:55 PM 26.6 °F 22.6 °F 21.2 °F 80% 30.27 in 10.0 mi North 3.5 mph - N/A   Clear
11:15 PM 26.6 °F 22.6 °F 21.2 °F 80% 30.28 in 10.0 mi North 3.5 mph - N/A   Clear
11:35 PM 26.6 °F 21.2 °F 21.2 °F 80% 30.29 in 10.0 mi NNW 4.6 mph - N/A   Clear
11:55 PM 26.6 °F 19.1 °F 21.2 °F 80% 30.30 in 10.0 mi NNW 6.9 mph - N/A   Clear